Охрид, Albania

10:51 AM CEST на 20 Јули, 2018 (GMT +0200)
Ohrid | | Change Station

Elev 2497 ft 41.12 °N, 20.80 °E | Updated 21 minutes ago

Ведро
Ведро
75 °F
Feels Like 75 °F
С
5
Ветер Променлив Ветер from ЈЈИ

Денес
High -- | Low -- °F
--% Chance of Precip.
Вчера
High -- | Low -- °F
Precip. -- инчи
Притисок 29.98 инчи
Видливост 6.2 миљи
Облаци Few 5000 ft
Точка на kондензација 59 °F
Влажност 57%
Дожд 0.00 инчи
Височина на снег Not available.
5:22 AM 8:05 PM
Првиот квартал, 56% visible
METAR LWOH 200830Z 16004KT 120V290 9999 FEW050 24/15 Q1015
Притисок 29.98 инчи
Видливост 6.2 миљи
Облаци Few 5000 ft
Точка на kондензација 59 °F
Влажност 57%
Дожд 0.00 инчи
Височина на снег Not available.
5:22 AM 8:05 PM
Првиот квартал, 56% visible
METAR LWOH 200830Z 16004KT 120V290 9999 FEW050 24/15 Q1015

Get Severe Weather Alerts

Thanks for signing up!

Be on the lookout for a verification email in your inbox.

You'll start receiving the daily forecast at 6 AM.

×

10-Day Weather Forecast

×

Almanac

Астрономијата

Jul. 20, 2018 Изгревање Заоѓање
Актуелно време
Граѓанскиот самрак
Наутички самрак
Астрономски самрак
Месечината
Должина на видливата светлина
Должина на денот
Tomorrow will be .
, % of the Moon is Illuminated

Екстреми денес

Country Highs Country Lows

Community

WunderPhotos

Category 6

Welcome to Category 6. This is the collective home for Weather Underground's featured writeups by Dr. Jeff Masters (right), Bob Henson (left), Chris Burt, and other regular contributors.

Nearby

Квалитетот на воздухот

  Квалитетот на воздухот AQ индекс Загадувач
Not available.

Височина на снег

Station Depth Висина

Earthquake Activity

Град Distance Mag. Time & Date
Minimum magnitude displayed is 2.5.

Coastal Water Temperatures

Место Температура

Stations

Nearby Weather Stations

Локација на станицата Темп. Лични чувство за темп. со ветерот Точка на kондензација Влажност Ветер Precip. Elev Ажурирани Тип